Regional Weather Roundup
Issued by NWS

Home | Current Version | Previous Version | Graphics & Text | Print | Product List | Glossary On
Versions: 1 2 3 4 5 6 7 8 9 10 11 12 13 14 15 16 17 18 19 20 21 22 23 24 25 26 27 28 29 30 31 32 33 34 35 36 37 38 39 40 41 42 43 44 45 46 47 48 49 50
000
ASUS43 KIND 231259
RWRIN

WEATHER ROUNDUP FOR INDIANA
NATIONAL WEATHER SERVICE INDIANAPOLIS IN
900 AM EDT THU OCT 23 2014

NOTE: "FAIR" INDICATES FEW OR NO CLOUDS BELOW 12,000 FEET WITH NO
SIGNIFICANT WEATHER AND/OR OBSTRUCTIONS TO VISIBILITY.

* - STATION DOES NOT REPORT WEATHER SUCH AS PRECIPITATION OR FOG.

+ - STATION NOT QUALITY CONTROLLED BY THE NATIONAL WEATHER SERVICE.
    USE DATA WITH CAUTION...ESPECIALLY DEWPOINT AND RELATIVE
    HUMIDITY OBSERVATIONS.

INZ001>003-010>013-019-020-231400-
NORTHWEST INDIANA

CITY           SKY/WX    TMP DP  RH WIND       PRES   REMARKS
GARY /AIRPORT/ MOCLDY    39  37  93 S7        30.24R FOG
VALPARAISO     NOT AVBL

$$

LMZ046-743>745-231400-
SOUTHERN LAKE MICHIGAN

STATION/POSITION TIME  TEMP WIND        PRES
                       AIR  DIR/SP/G
                 (UTC) (F)  (DEG/KT/KT) (MB)
MICHIGAN CITY    1200   41  130/ 10/ 12   N/A

$$

INZ004-005-014>016-021>024-231400-
NORTH CENTRAL INDIANA

CITY           SKY/WX    TMP DP  RH WIND       PRES   REMARKS
ELKHART        FOG       32  32 100 CALM      30.25S VSB 1/4
GOSHEN         FOG       31  30  96 CALM      30.25S VSB<1/4
SOUTH BEND     CLEAR     35  33  92 CALM      30.24F FOG

$$

INZ006>009-017-018-025>027-231400-
NORTHEAST INDIANA

CITY           SKY/WX    TMP DP  RH WIND       PRES   REMARKS
ANGOLA *+      CLOUDY    30  14  51 CALM      30.24S VSB 0
FORT WAYNE     FOG       31  31 100 CALM      30.26S VSB 1/4

$$

INZ028-029-035-036-043>045-051>053-231400-
WEST CENTRAL INDIANA

CITY           SKY/WX    TMP DP  RH WIND       PRES   REMARKS
GREENCASTLE +  FOG       36  36 100 CALM      30.25S VSB<1/4
LAFAYETTE      CLEAR     37  36  96 CALM      30.25S FOG
TERRE HAUTE    CLEAR     38  37  97 CALM      30.26R FOG

$$

INZ030>032-037>040-046>048-054>057-064-065-231400-
CENTRAL INDIANA

CITY           SKY/WX    TMP DP  RH WIND       PRES   REMARKS
COLUMBUS       FOG       32  32 100 CALM      30.27R VSB 1/4
INDIANAPOLIS   PTCLDY    38  37  97 CALM      30.25R FOG
-EAGLE CREEK   CLEAR     37  35  92 CALM      30.25S
KOKOMO *+      CLOUDY    34  30  86 CALM      30.26S VSB<1/4
MT COMFORT *+    N/A     32 N/A N/A CALM      30.26R VSB 1/4
SHELBYVILLE    CLEAR     35  33  92 CALM      30.25S FOG

$$

INZ033-034-041-042-049-050-058-059-231400-
EAST CENTRAL INDIANA

CITY           SKY/WX    TMP DP  RH WIND       PRES   REMARKS
MUNCIE         CLEAR     34  33  96 CALM      30.25S FOG

$$

INZ060-061-067>069-081>083-085>088-231400-
SOUTHWEST INDIANA

CITY           SKY/WX    TMP DP  RH WIND       PRES   REMARKS
EVANSVILLE     CLEAR     42  40  92 CALM      30.26R
HUNTINGBURG *+ CLEAR     39  37  93 CALM      30.26S

$$

INZ062-063-066-070>080-084-089>092-231400-
SOUTH CENTRAL AND SOUTHEAST INDIANA

CITY           SKY/WX    TMP DP  RH WIND       PRES   REMARKS
BLOOMINGTON    FOG       36  36 100 CALM      30.25F VSB 1/4

$$




USA.gov is the U.S. government's official web portal to all federal, state and local government web resources and services.